DMSP 5D-2 F13 DEB, 42276

Orbit data source: Space-Track

DMSP 5D-2 F13 DEB, 42276 is space debris in SSO originally from a launch on Fri, 24 Mar 1995 UTC launched from the Air Force Western Test Range (AFWTR). Debris objects in space refer to the collection of defunct objects orbiting the Earth. Examples of debris include non-operational satellites, rocket bodies, and fragments generated from explosions, collisions, or faulty payload assembly.

Loading next visibility...
Identifier
42276, 1995-015GS
Orbit
SSO
Country
Flag of USUS
Related business
Manufacturer
Unknown
Mission
Spacecraft
Bus & Motor
Unknown
Mass
Unknown
Launch date (UTC)
1995-03-24 (31 years ago)
Launch vehicle
Unknown
Launch site
Air Force Western Test Range (AFWTR)
Object type
Payload
Rocket body
Debris
Shape & HBR
Unknown shape, 0.1 m
Radar Cross Section
Small (<0.1 m²)

Expand to show TLE details & history
Last TLE update: 1 week ago

TLE from 1 week ago
0 DMSP 5D-2 F13 DEB
1 42276U 95015GS  25279.53000488  .00000307  00000-0  25414-3 0  9993
2 42276  99.0685 198.9368 0116076  78.6523 282.7652 13.93095630532300
Epoch: 2025-10-06T12:43Z
TLE epoch observation values (Epoch: 2025-10-06T12:43:12.421Z)
Latitude
-0.00008°
Longitude
-7.29688°
Altitude
902.892 km
Speed
7.41 km/s
True Right ascension
13h 15m 44s
True Declination
0° 00' 00"
Sunlit
Object was in daylight at epoch
Visualization orbit readout
Latitude
Unknown
Longitude
Unknown
Altitude
Unknown
Speed
Unknown
Apparent Right ascension
Unknown
Apparent Declination
Unknown
Sunlit
N/A
Visualization observer readout
Local Sidereal Time
05:43:00
Azimuth
Unknown
Elevation
Unknown
Doppler factor
Unknown
Orbital elements
Apogee altitude
999.67 km
Perigee altitude
830.358 km
Semi-major axis
7,293.151 km
Eccentricity
0.01161
Inclination
99.0685°
RAAN
198.9368°
Arg. of periapsis
78.6523°
True anomaly
281.46388°
Mean anomaly
282.7652°
Eccentric anomaly
282.11495°
Mean motion
3.48474 °/min
Orbital period
103.31 mins
BSTAR
0.00025414

Documentation

Showing up to 5 results
|